Temp
63 67 67 69 60 55 51 60 66 66 68 75 79 78 73 74 73 64 76 80 76 73 74 74 74 75 75 75 75 75 76 76 76 76 76 76 76 75 75 75 76 76 77 78 77 77 77 76 75
69 73 69 62 54 50 55 63 67 71 77 79 83 78 76 73 81 77 76 78 78 75 74 74 74 74 75 75 75 75 76 76 76 76 76 76 76 75 75 75 75 76 77 77 78 77 76 75 74
73 76 65 57 49 52 56 66 69 73 78 77 78 81 79 76 82 80 78 78 76 74 74 74 73 74 75 75 75 75 75 75 75 75 76 76 76 76 75 75 75 76 77 77 77 76 75 74 73
73 68 64 55 50 61 64 71 75 75 77 79 77 75 80 83 84 82 79 78 75 74 74 72 72 73 74 75 75 75 74 74 74 75 75 76 76 76 75 74 75 76 77 77 77 75 74 73 73
69 62 54 49 54 64 70 76 76 75 77 77 77 72 74 81 84 81 78 78 74 73 72 72 71 73 74 75 75 74 74 73 74 74 74 75 75 75 74 74 75 75 76 76 75 74 73 72 73
64 61 53 48 55 67 72 77 79 77 79 77 76 73 73 81 82 78 80 76 77 72 72 72 73 73 73 73 73 73 73 73 73 73 74 74 74 74 74 74 74 74 74 73 73 72 72 72 72
59 55 52 54 58 63 74 79 77 74 72 74 78 70 73 78 82 80 78 76 74 73 72 71 73 73 71 71 71 71 71 72 72 72 73 73 72 72 73 73 73 73 73 72 72 72 71 72 72
64 61 50 52 56 61 73 79 75 76 70 83 81 70 68 78 80 77 75 73 72 71 71 70 71 73 73 71 70 70 70 71 71 72 71 71 71 72 72 72 73 73 72 72 72 71 71 71 71
68 55 49 54 58 65 75 71 79 80 75 78 79 78 81 82 78 74 70 69 69 70 69 69 70 73 74 74 72 71 71 71 71 71 71 69 70 70 71 71 71 72 71 71 71 71 70 69 70
62 52 56 65 65 67 71 64 73 74 73 75 77 80 80 79 76 73 70 68 69 68 67 69 69 71 72 75 74 72 72 71 71 71 70 69 68 69 71 70 70 70 69 70 70 70 69 69 66
58 58 62 69 72 67 65 70 73 73 67 74 73 76 76 75 74 75 73 72 71 72 71 70 70 70 70 72 73 72 72 71 70 70 69 69 69 69 69 67 68 67 69 66 67 67 66 66 66
60 66 67 69 71 65 65 67 70 71 73 79 78 78 76 75 72 73 73 74 71 72 72 71 71 70 71 71 72 72 71 71 70 70 69 69 68 68 67 67 66 65 65 64 64 63 64 64 66
62 65 69 71 69 68 70 67 67 71 75 78 78 79 77 76 73 73 76 74 74 71 73 71 71 71 71 69 69 70 71 69 69 69 69 69 68 67 67 66 66 64 64 63 62 62 63 64 65
66 66 66 68 68 67 66 67 66 75 78 74 76 76 77 75 76 73 72 73 74 75 73 72 71 72 72 70 69 70 70 69 69 70 70 69 69 67 67 66 66 64 64 64 63 63 62 63 63
68 61 66 68 64 67 69 65 66 77 75 73 75 74 74 74 75 76 78 77 75 77 75 72 72 72 72 71 70 71 71 70 70 70 70 70 69 67 67 66 66 66 65 64 63 62 62 61 62
58 56 54 65 65 68 68 57 70 74 70 70 69 69 74 75 77 76 76 75 74 77 74 74 75 72 72 73 72 72 72 71 71 71 70 70 70 68 67 67 67 68 67 65 64 61 59 59 59
55 48 51 58 68 66 64 59 69 72 71 70 69 69 70 71 74 74 75 75 75 73 75 74 74 72 72 73 72 71 69 71 70 70 70 70 70 70 68 68 67 67 66 66 65 61 60 62 60
49 50 48 52 62 62 61 58 65 68 64 68 66 68 69 68 72 75 75 72 74 70 76 75 74 72 73 71 68 68 67 67 68 69 69 70 71 70 67 64 64 66 64 61 62 62 60 61 61
55 53 52 55 64 58 60 57 60 62 63 65 69 71 65 69 70 67 68 67 66 66 72 73 71 71 72 69 68 67 67 64 62 64 66 67 69 66 67 64 62 62 63 63 63 60 61 58 58
55 51 51 57 63 60 58 61 60 64 66 67 69 67 69 60 64 67 64 62 63 64 68 72 71 70 71 72 67 65 62 59 58 57 57 60 63 63 63 62 62 61 59 59 58 59 57 57 58
54 51 53 53 58 58 56 57 57 64 66 69 70 64 63 62 63 63 62 59 59 61 65 69 69 69 69 62 60 59 59 58 57 56 55 55 56 58 60 59 58 58 59 57 56 57 57 55 55
49 60 59 56 51 46 55 45 57 58 62 66 63 60 60 62 63 63 61 59 58 58 62 66 66 66 63 63 62 63 62 59 58 55 53 54 55 55 56 57 55 55 54 53 53 54 55 56 53
54 62 58 57 50 45 49 44 53 62 61 64 60 60 59 61 60 60 59 57 55 57 61 62 64 63 62 62 64 62 59 55 55 53 51 51 51 53 53 53 53 53 52 53 53 54 54 53 53
62 57 55 51 48 41 49 47 52 52 57 59 58 61 60 59 58 59 57 57 54 54 59 59 61 60 60 59 60 61 59 54 53 51 50 49 50 50 52 52 53 52 53 53 54 54 54 53 53
58 50 39 36 35 40 53 47 53 60 60 60 60 59 59 58 57 58 57 56 55 53 55 57 57 55 56 58 58 58 57 55 54 52 50 49 48 49 51 51 52 51 51 51 51 51 51 50 50
55 52 40 34 34 40 52 42 50 61 63 64 63 60 59 59 59 58 58 55 55 54 53 54 56 55 55 55 54 54 54 53 52 51 51 50 49 50 51 51 50 50 50 49 49 49 48 49 49
53 47 56 45 44 38 43 50 58 59 58 60 59 60 58 60 59 60 57 56 55 54 53 53 53 54 54 53 52 51 51 51 49 49 49 49 49 49 48 48 48 48 48 48 48 47 46 46 46
58 60 44 42 33 34 39 43 44 52 55 58 57 57 58 58 58 59 58 57 56 55 54 53 53 53 53 53 52 51 51 50 50 49 48 48 49 49 48 48 47 47 46 46 45 44 44 45 44
51 51 50 49 40 32 30 37 52 56 57 57 57 59 58 59 59 59 58 58 57 56 54 53 53 52 51 52 52 51 50 50 50 49 49 48 48 48 47 47 47 46 45 44 43 42 42 42 40
58 53 53 41 37 39 36 38 55 57 56 57 57 59 58 58 58 60 58 57 56 55 54 54 53 52 52 52 52 51 50 50 49 48 48 48 48 48 47 46 45 43 42 41 40 41 41 40 39
MSLP
1012.05 1012.05 1012.20 1012.44 1013.40 1013.24 1012.06 1009.98 1008.04 1006.85 1005.98 1005.39 1005.26 1005.84 1006.91 1007.38 1007.86 1009.17 1008.94 1009.21 1009.57 1010.35 1010.98 1011.51 1011.82 1012.09 1012.40 1012.79 1013.09 1013.39 1013.64 1013.87 1014.24 1014.49 1014.93 1015.33 1015.44 1015.59 1015.89 1016.20 1016.51 1016.71 1016.93 1017.17 1017.37 1017.59 1017.78 1018.05 1018.25
1011.81 1011.92 1012.36 1012.69 1013.16 1012.95 1011.38 1009.12 1007.49 1005.95 1005.15 1004.86 1005.27 1006.02 1006.63 1007.71 1007.75 1008.44 1009.00 1009.35 1009.34 1009.96 1010.91 1011.44 1011.68 1012.09 1012.47 1012.71 1012.97 1013.29 1013.70 1014.05 1014.42 1014.68 1015.06 1015.49 1015.73 1015.86 1016.14 1016.34 1016.55 1016.71 1016.96 1017.21 1017.40 1017.64 1017.78 1018.11 1018.41
1011.14 1011.43 1012.69 1012.95 1013.25 1012.28 1010.51 1008.36 1006.86 1005.83 1005.21 1004.96 1005.07 1005.71 1006.72 1007.65 1007.72 1008.14 1008.31 1009.23 1010.03 1010.46 1010.91 1011.47 1011.76 1011.99 1012.57 1012.85 1013.04 1013.24 1013.62 1014.07 1014.50 1015.03 1015.12 1015.50 1015.86 1016.13 1016.18 1016.46 1016.75 1016.90 1017.10 1017.28 1017.38 1017.57 1017.72 1018.03 1018.41
1011.12 1011.94 1012.75 1012.86 1012.63 1010.82 1009.12 1007.60 1006.55 1005.65 1005.22 1005.00 1005.30 1006.33 1007.09 1007.45 1007.40 1007.67 1008.52 1009.12 1010.05 1010.80 1011.03 1011.50 1011.81 1012.09 1012.43 1012.88 1013.18 1013.27 1013.52 1013.96 1014.56 1015.06 1015.48 1015.62 1016.03 1016.20 1016.45 1016.53 1016.84 1017.02 1017.17 1017.44 1017.56 1017.63 1017.85 1017.93 1018.35
1011.61 1012.60 1013.03 1013.07 1011.93 1010.14 1008.20 1006.78 1006.08 1005.57 1005.23 1005.22 1005.38 1006.93 1007.33 1007.61 1007.43 1007.95 1008.66 1009.22 1009.80 1010.72 1011.11 1011.49 1011.91 1012.23 1012.45 1012.86 1013.28 1013.59 1013.75 1014.04 1014.43 1015.01 1015.53 1015.74 1016.09 1016.49 1016.81 1016.89 1017.08 1017.25 1017.43 1017.60 1017.78 1017.92 1017.99 1018.09 1018.08
1012.19 1012.84 1013.26 1012.88 1011.66 1009.48 1007.64 1006.30 1005.82 1005.64 1005.48 1005.51 1005.93 1006.70 1007.52 1007.59 1007.78 1008.36 1008.73 1009.33 1009.84 1010.46 1011.21 1011.58 1011.82 1012.29 1012.61 1012.86 1013.40 1013.86 1014.07 1014.16 1014.52 1014.98 1015.45 1015.88 1016.27 1016.68 1017.03 1017.16 1017.37 1017.69 1017.95 1018.12 1018.35 1018.35 1018.42 1018.53 1018.43
1012.46 1013.14 1013.18 1012.36 1011.32 1009.65 1007.61 1006.16 1005.90 1005.99 1005.69 1005.67 1005.93 1007.16 1007.96 1007.95 1007.78 1008.25 1008.88 1009.47 1009.95 1010.47 1011.04 1011.67 1011.83 1012.22 1012.85 1013.23 1013.56 1014.01 1014.29 1014.49 1014.60 1015.00 1015.41 1015.86 1016.30 1016.71 1016.98 1017.29 1017.45 1017.80 1018.15 1018.46 1018.66 1018.84 1018.92 1018.91 1018.79
1011.90 1012.69 1012.74 1011.82 1011.03 1009.47 1007.83 1006.82 1006.18 1005.85 1005.77 1005.36 1005.67 1007.07 1007.89 1007.74 1007.83 1008.26 1009.01 1009.61 1010.15 1010.61 1011.05 1011.39 1011.96 1012.21 1012.66 1013.36 1013.76 1014.08 1014.28 1014.64 1014.85 1015.09 1015.43 1015.82 1016.24 1016.63 1016.95 1017.22 1017.55 1017.69 1017.91 1018.26 1018.57 1018.87 1018.95 1019.00 1018.92
1011.32 1012.30 1012.54 1011.54 1010.46 1009.40 1008.09 1007.77 1006.55 1006.21 1005.91 1005.73 1005.55 1006.25 1006.22 1006.90 1007.98 1008.80 1009.81 1010.38 1010.57 1010.86 1011.07 1011.39 1011.70 1012.26 1012.53 1013.13 1013.73 1014.14 1014.54 1014.72 1014.97 1015.33 1015.64 1016.02 1016.44 1016.79 1017.06 1017.22 1017.42 1017.66 1017.84 1018.15 1018.51 1018.74 1018.95 1019.08 1019.01
1011.52 1011.91 1011.56 1010.36 1009.74 1009.23 1008.62 1008.30 1007.63 1006.86 1006.67 1006.27 1006.25 1006.56 1006.82 1007.59 1008.15 1008.80 1009.42 1010.06 1010.43 1010.65 1010.83 1010.94 1011.26 1011.77 1012.36 1012.77 1013.46 1014.04 1014.48 1014.85 1015.19 1015.45 1015.80 1016.09 1016.29 1016.57 1016.85 1017.21 1017.40 1017.67 1017.98 1018.24 1018.51 1018.73 1018.82 1019.03 1019.13
1010.96 1010.97 1010.66 1009.70 1009.11 1008.98 1008.70 1008.02 1007.51 1007.28 1006.89 1006.53 1006.56 1006.67 1007.36 1007.76 1008.26 1008.52 1008.77 1008.76 1008.79 1009.39 1010.25 1010.60 1010.93 1011.19 1011.56 1012.09 1012.92 1013.64 1014.14 1014.58 1014.92 1015.14 1015.38 1015.80 1016.28 1016.62 1017.01 1017.28 1017.59 1017.85 1018.11 1018.33 1018.46 1018.65 1018.88 1019.01 1019.11
1010.96 1010.46 1010.21 1009.34 1008.73 1008.91 1008.72 1007.95 1007.55 1007.12 1006.65 1006.12 1006.19 1006.26 1006.93 1007.58 1007.95 1008.07 1008.15 1008.54 1008.89 1009.28 1009.42 1009.98 1010.40 1010.96 1011.28 1011.52 1012.09 1012.89 1013.59 1014.05 1014.45 1014.88 1015.23 1015.53 1015.97 1016.34 1016.74 1017.14 1017.50 1017.83 1018.05 1018.28 1018.47 1018.76 1018.96 1019.20 1019.25
1010.76 1010.35 1009.78 1009.16 1009.10 1008.71 1008.35 1007.86 1007.94 1006.84 1006.44 1006.17 1005.98 1006.04 1006.17 1006.53 1006.95 1006.93 1007.10 1007.52 1008.04 1008.74 1009.24 1009.72 1010.22 1010.55 1011.03 1011.39 1011.79 1012.20 1012.90 1013.47 1014.01 1014.52 1014.94 1015.35 1015.70 1016.11 1016.43 1016.95 1017.30 1017.67 1017.96 1018.17 1018.44 1018.69 1018.94 1019.24 1019.38
1010.84 1010.38 1009.86 1009.19 1008.82 1008.51 1008.31 1007.86 1007.89 1006.28 1005.62 1006.29 1006.18 1005.94 1005.72 1005.57 1005.68 1006.07 1006.58 1006.77 1007.39 1007.60 1008.12 1008.78 1009.67 1010.04 1010.94 1011.27 1011.28 1011.70 1012.18 1012.88 1013.58 1014.11 1014.63 1014.99 1015.36 1015.96 1016.36 1016.71 1017.01 1017.32 1017.59 1017.80 1018.11 1018.41 1018.73 1019.08 1019.33
1010.92 1010.63 1009.64 1009.00 1008.53 1008.10 1008.27 1008.06 1007.46 1006.01 1006.33 1006.28 1006.00 1005.77 1005.30 1004.97 1004.97 1005.37 1005.29 1005.51 1005.93 1006.38 1007.01 1007.89 1008.57 1009.45 1009.84 1010.76 1011.27 1011.40 1011.49 1012.12 1012.93 1013.44 1013.99 1014.57 1015.15 1015.64 1015.62 1016.33 1016.89 1017.02 1017.21 1017.57 1018.00 1018.41 1018.76 1019.23 1019.33
1011.44 1010.96 1010.34 1008.69 1008.39 1007.93 1008.03 1007.90 1006.66 1006.14 1006.48 1006.35 1005.94 1005.85 1005.51 1004.69 1004.45 1004.25 1004.35 1004.43 1004.67 1005.41 1006.28 1006.95 1008.04 1008.68 1009.47 1010.06 1010.80 1011.16 1011.42 1011.81 1012.08 1012.67 1013.30 1013.87 1014.42 1014.82 1015.49 1015.56 1015.98 1016.25 1016.78 1017.13 1017.66 1018.30 1018.73 1019.15 1019.40
1012.07 1011.22 1010.66 1009.23 1008.05 1008.21 1008.20 1007.83 1006.81 1006.45 1006.58 1006.53 1006.16 1005.98 1005.89 1005.39 1004.61 1004.23 1003.95 1003.71 1003.74 1004.48 1005.41 1006.42 1007.20 1008.08 1008.69 1009.56 1010.31 1010.90 1011.26 1011.76 1011.93 1012.34 1012.77 1013.16 1013.77 1014.20 1014.58 1015.26 1015.21 1015.81 1016.32 1016.84 1017.11 1018.03 1018.55 1019.07 1019.56
1011.53 1011.45 1010.71 1009.94 1008.16 1008.04 1007.80 1007.62 1007.21 1006.93 1006.73 1006.45 1006.37 1005.96 1005.74 1005.40 1004.83 1004.16 1003.79 1003.59 1003.62 1004.18 1004.75 1005.39 1006.50 1007.55 1008.43 1009.35 1010.06 1010.79 1011.43 1011.75 1011.86 1012.02 1012.20 1012.58 1013.03 1013.48 1014.08 1014.77 1015.11 1015.23 1015.91 1016.45 1016.95 1017.20 1018.29 1018.67 1019.16
1011.25 1011.22 1010.68 1009.60 1008.58 1008.44 1007.75 1007.40 1007.01 1006.61 1006.26 1005.94 1005.80 1005.24 1005.33 1004.86 1004.36 1004.48 1004.58 1004.41 1004.21 1004.38 1004.86 1005.67 1006.41 1007.23 1007.89 1008.94 1009.69 1010.58 1011.17 1011.55 1011.77 1011.72 1011.71 1012.07 1012.43 1012.96 1013.41 1014.04 1014.73 1015.12 1015.65 1015.68 1015.95 1016.98 1017.40 1018.73 1018.86
1011.30 1011.11 1010.45 1009.52 1008.57 1008.25 1007.65 1006.82 1006.57 1006.44 1005.87 1005.49 1005.44 1005.46 1005.03 1005.25 1005.28 1005.30 1005.42 1005.52 1005.32 1005.27 1005.47 1006.06 1006.66 1007.12 1007.58 1008.26 1009.15 1009.96 1010.80 1011.79 1011.96 1012.23 1012.24 1012.14 1012.28 1012.65 1013.08 1013.70 1014.20 1014.90 1015.64 1016.28 1016.74 1016.92 1017.75 1018.21 1019.24
1010.51 1010.36 1009.78 1009.54 1008.68 1008.03 1007.72 1005.76 1006.02 1005.78 1005.40 1005.05 1004.98 1005.06 1005.14 1005.48 1005.60 1005.90 1006.09 1006.37 1006.48 1006.44 1006.32 1006.49 1006.71 1006.95 1007.49 1008.23 1009.22 1010.36 1011.34 1011.96 1012.44 1012.70 1012.73 1012.83 1012.77 1012.85 1012.97 1013.57 1014.15 1014.70 1015.39 1016.27 1016.74 1017.05 1017.09 1018.45 1019.39
1009.68 1009.10 1009.28 1009.33 1009.27 1008.81 1008.20 1004.93 1005.87 1005.55 1005.24 1004.90 1005.03 1005.63 1005.62 1005.66 1005.58 1005.99 1006.48 1007.04 1007.06 1007.12 1006.73 1006.72 1006.97 1007.34 1007.85 1008.15 1008.73 1009.51 1010.22 1011.27 1011.64 1012.14 1012.75 1012.85 1012.95 1013.12 1013.35 1013.67 1014.34 1014.77 1015.35 1016.23 1016.67 1017.15 1017.26 1017.79 1018.83
1008.35 1008.59 1008.72 1008.91 1009.18 1009.14 1009.05 1008.71 1003.98 1005.49 1005.04 1004.15 1004.68 1005.64 1005.90 1005.82 1005.86 1006.33 1006.83 1007.45 1008.12 1007.88 1007.83 1007.67 1007.66 1008.02 1008.40 1008.64 1008.67 1009.39 1010.31 1011.13 1011.99 1012.68 1013.16 1013.40 1013.35 1013.42 1013.53 1013.69 1014.43 1014.91 1015.49 1016.14 1016.66 1017.05 1017.36 1017.97 1018.59
1007.88 1008.37 1008.70 1008.96 1009.36 1008.80 1009.01 1008.86 1001.32 1005.16 1004.70 1004.41 1004.68 1005.33 1005.96 1006.23 1006.57 1006.91 1007.34 1007.72 1008.24 1008.34 1008.48 1008.54 1008.67 1009.04 1009.37 1009.62 1009.82 1010.09 1010.55 1011.24 1012.19 1012.91 1013.51 1013.86 1014.03 1014.19 1014.28 1014.42 1014.55 1015.11 1015.66 1015.87 1016.33 1016.84 1017.35 1017.89 1018.54
1007.88 1008.32 1009.24 1009.66 1009.89 1008.39 1007.93 1007.80 1005.00 1004.54 1004.43 1004.57 1005.14 1005.62 1006.39 1006.51 1006.90 1007.03 1007.57 1008.00 1008.53 1008.88 1008.90 1009.02 1009.36 1009.81 1010.01 1010.29 1010.60 1010.97 1011.32 1011.82 1012.30 1012.63 1013.16 1013.57 1014.06 1014.58 1014.78 1014.93 1015.28 1015.37 1015.75 1016.05 1016.78 1017.03 1017.40 1018.40 1018.59
1006.47 1007.38 1008.03 1008.79 1009.35 1008.60 1007.98 1006.59 1004.76 1003.65 1003.46 1004.49 1005.20 1005.76 1006.25 1006.48 1006.68 1007.15 1007.67 1008.18 1008.47 1008.94 1009.30 1009.46 1009.66 1010.03 1010.28 1010.59 1010.96 1011.20 1011.48 1012.10 1012.62 1013.05 1013.31 1013.58 1013.95 1014.48 1014.73 1014.66 1015.27 1015.47 1015.95 1016.14 1016.57 1017.38 1017.64 1017.95 1018.13
1006.05 1006.12 1007.05 1007.97 1008.78 1008.96 1007.71 1005.91 1004.63 1004.15 1004.06 1004.93 1005.45 1005.92 1006.19 1006.18 1006.62 1007.02 1007.57 1008.04 1008.52 1008.93 1009.18 1009.43 1009.86 1010.31 1010.71 1010.96 1011.34 1011.64 1011.90 1012.17 1012.48 1013.11 1013.64 1013.64 1014.18 1014.45 1014.95 1015.23 1015.33 1015.48 1016.23 1016.47 1016.70 1016.98 1017.42 1018.13 1018.46
1004.48 1005.48 1006.84 1007.80 1008.89 1009.17 1007.40 1006.36 1005.43 1005.13 1005.00 1005.20 1005.54 1005.84 1006.10 1006.36 1006.91 1007.17 1007.44 1007.76 1008.16 1008.58 1008.78 1009.23 1009.79 1010.39 1010.91 1011.36 1011.72 1012.00 1012.16 1012.36 1012.83 1013.16 1013.56 1013.73 1013.99 1014.57 1014.97 1015.59 1015.86 1016.26 1016.34 1017.16 1017.36 1017.88 1018.22 1019.06 1018.73
1004.72 1004.94 1005.64 1006.72 1007.36 1007.78 1007.83 1005.79 1004.44 1004.68 1004.71 1005.22 1005.56 1005.84 1006.16 1006.47 1006.66 1007.09 1007.35 1007.31 1007.79 1008.32 1008.72 1009.23 1009.65 1010.09 1010.50 1010.97 1011.35 1011.68 1011.99 1012.06 1012.36 1012.70 1012.89 1013.35 1013.79 1014.40 1014.67 1015.39 1015.89 1016.33 1016.92 1017.51 1017.92 1018.54 1018.90 1019.05 1019.41
1002.99 1003.21 1004.50 1005.66 1006.71 1007.33 1007.19 1005.84 1004.01 1004.29 1005.01 1005.56 1006.13 1006.29 1006.33 1006.58 1006.78 1006.74 1007.12 1007.85 1008.01 1008.39 1008.97 1009.38 1009.74 1010.03 1010.53 1010.85 1011.36 1011.80 1012.34 1012.77 1013.05 1013.31 1013.72 1013.71 1013.84 1014.45 1014.79 1015.25 1015.91 1016.42 1016.95 1017.54 1018.21 1019.03 1019.04 1018.97 1019.72
Wind_Speed
4 4 2 4 5 6 3 6 1 2 2 2 2 12 8 3 2 3 4 7 16 16 13 13 15 16 16 16 16 15 16 16 16 16 15 14 15 16 16 15 14 14 14 14 14 14 13 12 12
3 4 4 2 6 4 6 6 6 5 4 1 8 5 6 3 3 5 5 8 18 17 13 12 16 17 17 17 16 17 16 17 16 16 16 14 14 15 15 14 14 14 14 14 14 13 12 10 10
2 2 4 5 3 4 3 4 4 1 4 2 3 6 5 4 3 6 5 14 12 13 12 11 16 18 17 17 16 17 17 17 16 14 16 15 14 14 15 14 13 14 14 14 14 13 11 8 9
3 5 5 5 4 7 5 6 6 4 3 4 5 7 5 3 4 7 14 16 13 10 10 12 15 17 18 17 16 17 18 17 16 15 14 15 14 14 13 13 13 13 13 14 13 12 9 9 8
4 3 4 2 5 5 7 5 5 4 4 2 3 2 4 3 8 14 15 15 16 10 9 12 12 15 17 17 16 16 17 17 17 15 14 14 14 12 11 11 10 11 11 11 10 9 8 7 6
5 3 4 1 5 8 8 5 3 3 2 2 6 5 1 3 8 11 13 13 13 14 11 10 14 13 14 16 14 13 15 16 16 15 14 14 13 11 10 10 10 9 8 7 6 6 5 3 1
5 4 3 3 4 7 5 4 3 3 2 4 3 4 2 2 7 10 10 11 11 11 12 10 11 12 11 10 11 11 12 14 16 15 14 13 12 11 11 10 11 10 8 6 5 3 2 2 5
5 4 2 3 2 5 6 9 3 5 1 2 6 6 5 7 8 9 11 11 11 10 10 12 10 12 11 8 9 11 12 12 13 14 13 13 13 12 11 11 10 11 11 9 7 4 2 1 4
3 3 3 5 3 6 7 9 9 5 2 3 2 7 6 12 9 9 10 6 7 7 9 10 12 12 13 11 8 11 11 11 12 11 11 10 5 7 8 8 11 11 10 10 7 5 3 2 5
4 4 10 7 4 4 4 2 6 6 6 3 4 6 7 9 8 12 11 12 11 12 11 11 12 14 13 10 11 8 8 7 7 7 8 5 6 6 7 7 11 10 9 8 7 6 5 2 2
3 6 5 8 10 5 4 8 5 5 2 4 4 5 8 7 8 12 13 18 21 17 11 12 13 13 15 12 9 6 5 6 5 9 9 7 6 4 3 3 3 3 6 3 5 4 3 3 2
5 5 5 7 6 3 5 4 4 6 9 7 8 8 7 12 11 12 12 13 11 16 16 14 14 13 13 9 11 9 8 7 7 8 10 7 5 6 5 4 4 4 3 5 4 2 3 3 4
5 5 7 8 8 6 7 6 3 12 10 10 11 9 11 10 12 11 15 10 13 14 14 14 13 13 13 12 9 11 10 8 8 8 9 7 6 7 6 5 5 5 4 4 4 4 4 4 3
5 7 8 7 7 7 4 8 3 17 13 8 9 12 12 11 11 7 10 14 14 17 17 16 16 15 13 10 13 10 10 9 8 8 9 9 7 5 6 6 6 5 6 5 5 5 5 4 4
6 7 8 6 3 10 6 9 8 19 9 12 14 10 11 11 9 11 12 10 19 18 18 19 19 16 17 13 11 9 10 11 10 9 11 11 7 6 9 7 6 6 6 6 4 3 3 3 3
5 1 4 3 2 5 10 8 15 11 5 10 9 8 9 8 11 11 10 10 10 13 19 19 15 17 16 14 11 9 9 9 10 9 9 13 11 9 7 8 9 8 7 7 6 4 4 4 4
4 4 5 11 8 5 6 6 6 7 7 9 8 8 8 10 10 10 11 11 10 13 18 18 18 18 18 14 10 8 7 8 7 8 9 13 12 12 9 7 7 8 7 6 8 3 4 6 4
6 5 5 6 5 3 11 8 6 6 3 8 9 10 10 10 14 10 10 6 8 10 17 19 16 16 15 9 6 4 5 4 6 8 9 12 11 12 7 4 5 7 7 5 5 10 3 6 7
3 3 7 7 12 5 12 8 9 7 6 9 11 11 10 12 7 3 6 8 7 7 12 16 16 15 13 10 10 8 9 5 2 3 6 9 9 8 10 7 6 5 7 10 12 5 10 1 5
11 12 16 10 13 7 9 19 7 6 9 10 14 11 13 1 5 7 8 9 10 4 7 12 13 14 13 10 5 4 4 3 3 2 3 3 6 6 6 7 7 7 4 3 2 2 3 3 3
16 16 14 13 6 5 7 18 6 6 5 11 11 5 6 8 9 6 8 9 7 8 4 7 10 14 11 9 8 5 6 4 3 1 2 2 4 5 6 6 6 6 5 4 4 3 5 4 3
16 11 14 8 1 8 4 22 12 6 12 14 7 6 6 8 7 6 7 7 7 6 4 7 7 8 7 10 8 11 8 6 3 3 3 3 4 5 7 8 7 7 6 7 7 4 5 6 7
10 7 9 6 4 1 5 6 4 10 18 22 11 9 7 8 8 8 7 8 5 7 7 5 6 5 5 4 7 7 6 3 3 4 6 4 4 4 6 9 8 8 7 7 9 8 7 4 2
3 4 2 2 3 11 8 7 28 4 6 5 3 11 9 8 6 7 6 7 7 6 7 8 8 7 7 6 5 3 7 7 7 5 5 4 3 3 4 5 8 8 8 9 8 8 9 8 8
6 5 2 3 1 12 9 9 19 14 8 5 10 8 7 8 7 7 7 6 6 7 6 6 6 6 6 5 5 4 4 4 5 7 6 7 5 3 4 5 4 5 5 7 6 7 8 5 7
12 11 8 8 7 5 8 8 7 11 8 6 6 7 6 7 7 6 6 6 6 6 6 5 4 4 4 4 4 3 6 4 2 2 4 4 5 6 6 7 5 9 8 8 8 7 5 7 9
8 15 11 4 3 0 6 6 5 6 9 7 8 7 8 7 6 7 8 8 7 6 7 8 7 5 3 4 4 4 4 5 6 7 4 5 6 6 6 7 9 9 5 6 6 6 7 6 7
19 8 6 5 7 12 5 6 6 5 8 7 7 8 7 5 5 6 7 8 7 7 6 6 6 6 5 5 4 3 4 6 6 8 8 9 9 8 9 6 6 5 7 5 5 5 5 6 4
8 14 6 8 6 7 3 8 8 13 9 8 6 6 4 6 1 7 7 6 7 6 6 7 7 8 7 7 6 7 6 7 7 7 9 10 9 10 9 7 7 7 6 5 5 4 6 6 6
19 18 18 10 6 5 5 7 1 10 8 8 7 6 6 4 2 5 6 4 7 7 6 7 7 7 7 7 6 6 6 5 5 5 6 7 9 8 9 8 7 6 6 6 6 6 5 7 6
Wind_Direction
288 188 125 49 54 66 271 268 292 157 35 266 338 99 132 110 111 166 347 148 136 144 155 160 153 148 143 140 139 135 132 128 124 120 119 115 116 116 115 113 113 112 111 110 105 101 93 88 83
197 125 48 80 83 46 296 267 183 137 168 148 107 109 61 44 76 142 122 156 152 146 152 161 154 151 149 148 147 143 140 134 131 130 126 125 126 124 123 123 124 124 122 118 112 107 101 90 84
178 131 88 96 98 167 223 258 242 190 37 64 80 89 100 110 79 161 112 140 139 140 148 157 153 150 154 152 153 148 146 140 138 138 136 136 136 135 134 133 132 130 128 128 125 123 120 112 106
37 11 24 89 224 268 231 258 225 148 326 45 127 76 67 306 150 151 137 136 133 141 145 151 151 154 155 160 160 155 150 145 143 144 145 141 144 144 144 138 138 137 136 136 136 137 134 135 128
39 66 47 38 267 258 279 246 183 145 172 74 91 81 106 31 102 130 139 143 140 140 143 151 152 157 161 163 164 161 153 149 149 150 150 149 150 149 147 139 138 137 137 141 143 142 145 153 154
11 92 44 247 289 288 298 233 130 58 342 176 73 119 143 142 128 155 145 149 150 144 149 156 156 159 162 164 163 162 156 155 151 153 154 154 150 149 149 143 135 130 127 127 133 140 144 141 235
123 77 216 261 264 309 298 283 47 67 13 5 105 71 149 180 181 148 145 140 143 144 147 157 159 160 154 157 156 157 159 160 156 157 156 156 152 154 156 152 144 141 135 133 133 128 78 10 339
117 102 269 255 151 269 319 335 137 117 226 246 135 160 198 215 174 120 126 138 139 144 154 156 160 164 160 165 153 158 164 164 161 160 160 155 158 162 162 161 159 154 151 154 155 160 160 271 300
114 78 211 239 194 283 336 11 324 329 38 310 246 158 205 148 125 103 112 115 130 148 158 158 157 167 169 174 170 164 165 166 166 161 158 151 154 162 165 166 164 165 161 162 164 170 185 245 282
127 160 211 205 196 253 307 297 302 343 333 293 340 36 97 133 158 152 162 163 168 174 174 170 163 165 166 170 175 170 172 172 173 167 164 157 159 163 167 168 169 165 162 162 166 182 189 199 282
218 221 217 257 250 208 249 296 193 247 198 190 244 277 175 166 195 186 177 176 183 181 173 179 172 168 165 168 167 174 174 171 174 171 168 166 163 166 165 151 169 153 160 159 169 188 199 199 214
299 271 238 270 277 305 240 247 289 250 248 227 237 229 166 193 195 202 200 184 171 180 185 179 178 172 176 159 169 170 177 178 179 182 176 172 172 175 168 170 166 162 168 178 181 186 186 211 251
224 276 297 282 295 262 257 261 234 271 244 263 267 274 260 219 204 210 208 186 173 183 184 187 177 177 178 166 170 171 179 180 179 180 185 179 181 180 167 172 169 179 174 180 185 188 185 199 235
313 297 279 284 278 253 246 289 106 279 276 266 269 264 263 244 230 195 184 203 183 188 187 179 184 177 180 185 178 175 173 174 176 180 187 186 186 166 178 179 184 183 187 185 182 186 179 185 164
303 308 313 291 272 277 105 307 254 261 319 272 267 245 259 241 203 202 203 200 185 193 182 184 180 177 180 181 183 181 178 173 180 185 185 190 184 188 177 178 187 196 190 187 170 176 148 143 161
322 274 300 235 326 281 130 256 272 290 288 292 294 287 253 208 199 209 216 212 178 177 178 181 179 178 178 181 183 180 183 183 185 184 182 188 194 184 183 185 190 193 192 184 177 165 154 158 172
273 253 230 308 202 235 163 240 257 326 332 316 303 282 263 276 267 253 233 218 207 177 175 177 177 180 178 181 176 178 174 190 185 182 185 191 192 193 181 199 196 185 183 184 173 143 152 164 178
202 212 232 233 259 308 296 236 257 277 318 276 282 288 280 262 260 274 291 267 217 178 172 172 177 177 172 162 136 134 154 172 180 191 194 187 196 195 179 195 195 176 177 163 160 157 157 164 168
247 245 254 256 271 299 282 279 276 272 269 276 277 280 266 256 280 21 42 28 67 123 150 169 167 175 163 164 165 164 179 166 155 169 181 185 190 186 194 170 162 163 196 189 168 151 153 134 141
243 259 264 279 262 254 289 286 270 289 277 279 283 291 285 104 82 75 58 45 33 74 146 163 168 169 173 170 159 136 122 75 96 80 75 118 146 152 162 158 168 167 145 163 200 67 140 108 250
231 228 247 246 282 266 301 278 235 249 259 276 280 259 130 146 118 88 66 52 44 51 87 166 173 170 167 133 113 90 83 74 94 117 102 66 103 113 129 120 122 112 117 116 106 128 136 133 95
243 219 243 261 324 271 140 293 267 218 271 277 192 188 154 138 115 113 99 72 43 40 64 138 146 155 144 151 143 162 171 162 174 145 119 113 85 112 115 116 111 110 116 124 115 116 129 121 187
233 207 220 199 220 261 171 280 137 316 294 283 189 176 187 159 139 124 104 91 51 29 38 43 90 95 119 148 159 151 141 103 92 107 113 94 86 98 126 127 127 131 126 127 130 130 130 106 117
241 191 178 81 121 261 174 196 286 206 222 292 123 162 173 151 130 103 101 96 82 49 47 39 71 47 48 51 60 133 148 133 135 144 152 140 107 89 96 126 133 131 133 131 136 133 143 159 154
189 125 271 305 193 257 180 225 255 274 243 208 167 162 170 134 140 139 139 120 111 102 90 76 72 58 50 68 67 70 110 150 183 164 166 157 142 133 130 120 121 115 113 112 102 121 118 132 130
212 188 178 206 209 235 197 240 250 257 177 151 168 155 151 145 152 167 150 137 130 117 122 113 103 104 100 106 112 121 127 122 117 131 157 143 143 144 155 132 130 136 133 134 131 121 145 159 137
203 213 193 273 117 346 229 276 327 17 90 142 161 155 174 165 158 167 153 169 157 148 156 150 146 139 138 119 119 118 122 136 136 133 134 137 135 138 131 143 148 141 146 149 141 134 138 130 131
213 156 167 193 190 229 242 225 215 168 152 154 144 172 202 205 202 181 178 176 176 169 158 145 145 144 134 127 131 133 138 137 146 144 160 158 148 153 150 155 147 130 122 113 102 118 120 138 97
186 213 199 179 168 163 175 250 197 184 173 165 177 189 149 71 186 215 219 186 160 155 157 149 154 150 153 153 154 152 156 156 158 164 162 160 148 155 147 143 134 124 120 121 112 129 155 133 133
201 206 193 195 207 184 159 268 283 145 126 128 139 129 122 116 174 213 223 126 169 161 158 164 170 155 163 159 146 136 135 137 139 156 159 153 146 146 141 139 139 136 140 138 146 170 155 136 133